If you wish to contribute or participate in the discussions about articles you are invited to join SKYbrary as a registered user

 Actions

A Coruña Airport

From SKYbrary Wiki

LECO
Airport
ICAO: LECO – IATA: LCG
Summary
Name A Coruña Airport
Region Europe
Territory Spain ES.gif
Location Alvedro, Galicia
Serving La Coruna
Elevation 99.365 m
326 ft
326 ft99.365 m
Type medium airport
Coordinates 43° 18' 7.4196", -8° 22' 38.1216"
Runways
Designator Length Width Surface ROPS
4/22 1940 m6,364.829 ft 45 m147.638 ft ASP no/no


METAR
Observation LECO 251130Z 08006KT 040V110 CAVOK 23/10 Q1024 NOSIG
Station La Coruna / Alvedro
Date/Time 25 September 2018 11:30:00
Wind direction 80°
Wind speed 06 kts
Lowest cloud amount clouds and visibility OK
Temperature 23°C
Dew point 10°C
Humidity 43%
QNH 1024 hPa
Weather condition n/a

A Coruña Airport, formerly known as Alvedro Airport, is the airport serving the Galician city of A Coruña in northwestern Spain.

Climatology

humid oceanic climate with drier summers, (Köppen climate classification Cfb), heavily moderated by the Atlantic Ocean. Autumn and winter are often unsettled and unpredictable, with strong winds and abundant rainfall coming from Atlantic depressions, and it is often overcast.

Maps

Terrain

Loading map...

Airport Layout

Loading map...


Accidents & Serious Incidents at or in vicinity of LECO

None on SKYbrary